Regional Weather Roundup
Issued by NWS

Home | Current Version | Previous Version | Text Only | Print | Product List | Glossary On
Versions: 1 2 3 4 5 6 7 8 9 10 11 12 13 14 15 16 17 18 19 20 21 22 23 24 25 26 27 28 29 30 31 32 33 34 35 36 37 38 39 40 41 42 43 44 45 46 47 48 49 50
000
ASUS43 KBIS 171302
RWRND

NORTH DAKOTA REGIONAL WEATHER ROUNDUP
NATIONAL WEATHER SERVICE BISMARCK ND
700 AM CST SAT FEB 17 2018

NOTE: "FAIR" INDICATES FEW OR NO CLOUDS BELOW 12,000 FEET WITH NO
SIGNIFICANT WEATHER AND/OR OBSTRUCTIONS TO VISIBILITY.


NDZ001>003-009>011-017-171400-
NORTHWEST NORTH DAKOTA

CITY           SKY/WX    TMP DP  RH WIND       PRES   REMARKS
WILLISTON      MOCLDY    11   7  84 W9        29.94R WCI  -2
MINOT          PTCLDY    11   6  81 W10       29.86R WCI  -3
MINOT AFB      CLOUDY    10   5  80 NW13        N/A  WCI  -6
$$

NDZ018>021-031>035-040>046-171400-
SOUTHWEST NORTH DAKOTA

CITY           SKY/WX    TMP DP  RH WIND       PRES   REMARKS
BISMARCK       CLOUDY    18  14  84 NW8       29.90R WCI   8
DICKINSON      CLEAR     12   9  87 W15       29.87R WCI  -4
GARRISON         N/A      9   6  88 NW10      29.88R WCI  -5
HETTINGER ARPT MOCLDY    18  14  84 NW16      29.90R WCI   3
$$

NDZ004>008-012>016-024-026-027-054-171400-
NORTHEAST NORTH DAKOTA

CITY           SKY/WX    TMP DP  RH WIND       PRES   REMARKS
GRAND FORKS    FAIR      13   9  84 W10       29.81R WCI   0
GRND FRKS AFB  FAIR      13   8  77 NW9       29.81R WCI   1
DEVILS LAKE    FAIR      10   7  87 W15       29.81R WCI  -7
$$

NDZ022-023-025-028>030-036>039-047>053-171400-
SOUTHEAST NORTH DAKOTA

CITY           SKY/WX    TMP DP  RH WIND       PRES   REMARKS
FARGO          FAIR      16  12  84 W10       29.83R WCI   4
JAMESTOWN      CLOUDY    13  10  88 W10       29.83R WCI   0
$$





USA.gov is the U.S. government's official web portal to all federal, state and local government web resources and services.